Flag Weather past 2 weeks in Coimbra, Portugal

Now
54 °F

Passing clouds.


Feels Like: 53 °F
Forecast: N/A
Wind: 5 mph from East

Location: Porto / Pedras Rubras

Current Time: Nov 26, 2014 at 11:22:55 PM

Latest Report: Nov 26, 2014 at 10:30 PM


Visibility: N/A

Pressure: 29.68 "Hg

Humidity: 77%

Dew point: 46 °F

Location of CoimbraLocation

Historic Weather in Coimbra — Graph

°F

Coimbra temperature yesterday

Maximum temperature yesterday: 61 °F (at 11:00 AM)
Minimum temperature yesterday: 48 °F (at 11:00 PM)
Average temperature yesterday: 56 °F

Past Weeks' High & Low Weather Summary

 TemperatureHumidityPressure
High72 °F (Nov 21, 1:30 PM)100% (Nov 12, 3:00 AM)30.09 "Hg (Nov 12, 3:00 AM)
Low48 °F (Nov 25, 11:00 PM)55% (Nov 26, 2:30 PM)29.59 "Hg (Nov 13, 6:30 PM)
Average58 °F85%29.85 "Hg
* Reported Nov 11 10:00 PM — Nov 26 10:00 PM, Coimbra, Weather by CustomWeather, © 2014

Note: Actual official high and low records may vary slightly from our data, if they occured in-between our weather recording intervals... More about our weather records

Advertising

Coimbra weather history for previous 24 hours

 ConditionsComfort  
Time TempWeatherWind HumidityBarometerVisibility
10:00 PM
Nov 26
55 °FPassing clouds.7 mph72%29.71 "HgN/A
9:00 PM55 °FPassing clouds.7 mph72%29.74 "HgN/A
8:30 PM55 °FPassing clouds.7 mph67%29.74 "HgN/A
8:00 PM54 °FPassing clouds.7 mph77%29.74 "HgN/A
7:30 PM54 °FPassing clouds.6 mph77%29.74 "HgN/A
7:00 PM54 °FPassing clouds.3 mph77%29.74 "HgN/A
6:30 PM54 °FPassing clouds.3 mph77%29.74 "HgN/A
6:00 PM54 °FPassing clouds.6 mph77%29.74 "HgN/A
5:30 PM55 °FPassing clouds.6 mph72%29.74 "HgN/A
5:00 PM55 °FPassing clouds.5 mph72%29.74 "HgN/A
4:48 PM55 °FPassing clouds.5 mph72%29.74 "HgN/A
4:30 PM57 °FPassing clouds.6 mph67%29.74 "HgN/A
4:00 PM57 °FPassing clouds.7 mph67%29.74 "HgN/A
3:30 PM59 °FPassing clouds.7 mph63%29.77 "HgN/A
3:00 PM59 °FPassing clouds.7 mph63%29.77 "HgN/A
2:30 PM61 °FPassing clouds.9 mph55%29.77 "HgN/A
2:00 PM59 °FScattered clouds.7 mph63%29.80 "HgN/A
1:30 PM61 °FPassing clouds.7 mph59%29.80 "HgN/A
1:00 PM59 °FPassing clouds.8 mph63%29.80 "HgN/A
12:30 PM59 °FPassing clouds.10 mph63%29.83 "HgN/A
12:00 PM57 °FScattered clouds.10 mph67%29.83 "HgN/A
11:00 AM52 °FScattered clouds.9 mph82%29.86 "HgN/A
10:30 AM52 °FScattered clouds.9 mph88%29.89 "HgN/A
10:00 AM52 °FScattered clouds.9 mph82%29.89 "HgN/A
9:00 AM50 °FScattered clouds.7 mph94%29.89 "HgN/A
8:30 AM50 °FScattered clouds.8 mph94%29.89 "HgN/A
8:00 AM48 °FPassing clouds.9 mph100%29.89 "Hg6 mi
7:30 AM48 °FPassing clouds.8 mph100%29.92 "Hg6 mi
7:00 AM48 °FPassing clouds.8 mph100%29.92 "Hg6 mi
6:30 AM48 °FPassing clouds.8 mph100%29.92 "Hg6 mi
6:00 AM48 °FPassing clouds.8 mph94%29.92 "Hg6 mi
5:30 AM48 °FPassing clouds.8 mph100%29.92 "Hg6 mi
5:00 AM50 °FPassing clouds.7 mph94%29.92 "Hg6 mi
4:30 AM50 °FPassing clouds.7 mph94%29.95 "Hg6 mi
4:00 AM52 °FPassing clouds.6 mph94%29.95 "Hg6 mi
3:30 AM50 °FPassing clouds.7 mph100%29.98 "Hg6 mi
3:00 AM50 °FPassing clouds.7 mph94%29.98 "Hg6 mi
2:30 AM50 °FPassing clouds.7 mph94%29.98 "Hg6 mi
2:00 AM50 °FPassing clouds.6 mph94%30.01 "Hg6 mi
1:30 AM50 °FPassing clouds.6 mph100%30.01 "Hg6 mi
1:00 AM50 °FPassing clouds.7 mph100%30.01 "Hg6 mi
12:30 AM50 °FPassing clouds.2 mph94%30.04 "HgN/A
12:00 AM48 °FPassing clouds.2 mph94%30.04 "HgN/A
11:00 PM
Nov 25
48 °FPassing clouds.No wind94%30.04 "HgN/A
Weather by CustomWeather, © 2014

See weather overviewHow to use our weather pages